Location: Carthage
(33.8834°N, 106.6595°W)
Time: 12:57:36
(UTC+00:00)

Cosmos 1378 Rocket - Pass Details

Date: 13 February 2026
Orbit: 594 x 620 km, 82.5° (Epoch: 11 March)

Event Time Altitude Azimuth Distance (km) Brightness Sun altitude
Exits shadow 12:15:55 22° 343° (NNW) 1,309 5.0 -20.7°
Maximum altitude 12:18:33 66° 266° (W) 655 3.3 -20.2°
Drops below altitude 10° 12:22:46 10° 184° (S) 1,931 6.1 -19.3°
Sets 12:24:59 0° 181° (S) 2,833 7.0 -18.8°
